Location: Mahannah Oil Field
(37.4664°N, 96.6003°W)
Time: 02:49:38
(UTC+00:00)

X-37B - Pass Details

Date: 28 November 2020
Orbit: 383 x 391 km, 45.1° (Epoch: 22 January)

Event Time Altitude Azimuth Distance (km) Brightness Sun altitude
Rises 00:06:19 0° 234° (SW) 2,248 6.0 -11.3°
Reaches altitude 10° 00:08:23 10° 231° (SW) 1,399 4.6 -11.7°
Maximum altitude 00:11:30 66° 149° (SSE) 422 0.6 -12.3°
Enters shadow 00:13:17 23° 71° (ENE) 868 1.7 -12.6°
